Home   Weather   Manhattan   Past weeks

Flag for USA Past Weather in Manhattan, Kansas, USA — Yesterday and Last 2 Weeks

Now
49 °F

Sunny.


Feels Like: 42 °F
Forecast: 35 / 58 °F
Wind: 20 mph from Southeast

Location: Manhattan Municipal Airport

Current Time: Jan 24, 2017 at 1:25:18 pm

Latest Report: Jan 24, 2017 at 11:52 am


Visibility: 10 mi

Pressure: 29.47 "Hg

Humidity: 61%

Dew Point: 36 °F

Location of ManhattanLocation

Past Weather in Manhattan — Graph

°F

Manhattan Temperature Yesterday

Maximum temperature yesterday: 54 °F (at 1:52 pm)
Minimum temperature yesterday: 22 °F (at 5:52 am)
Average temperature yesterday: 35 °F

High & Low Weather Summary for the Past Weeks

 TemperatureHumidityPressure
High59 °F (Jan 18, 2:52 pm)100% (Jan 16, 10:52 am)30.63 "Hg (Jan 16, 10:52 am)
Low14 °F (Jan 12, 6:52 am)35% (Jan 18, 2:52 pm)29.33 "Hg (Jan 10, 4:52 am)
Average37 °F76%29.95 "Hg
* Reported Jan 9 11:52 am — Jan 24 11:52 am, Manhattan, Weather by CustomWeather, © 2017

Note: Actual official high and low records may vary slightly from our data, if they occured in-between our weather recording intervals... More about our weather records

Advertising

Manhattan Weather History for the Previous 24 Hours

Scroll right to see more
 ConditionsComfort  
Time TempWeatherWind HumidityBarometerVisibility
11:52 am
Tue, Jan 24
49 °FSunny.20 mph61%29.47 "Hg10 mi
10:52 am41 °FPassing clouds.16 mph80%29.54 "Hg10 mi
9:52 am38 °FSunny.14 mph83%29.56 "Hg10 mi
8:52 am35 °FSunny.9 mph85%29.60 "Hg9 mi
7:52 am34 °FSunny.9 mph85%29.61 "Hg8 mi
6:52 am35 °FClear.10 mph85%29.63 "Hg10 mi
5:52 am35 °FClear.9 mph85%29.62 "Hg10 mi
4:52 am35 °FPassing clouds.12 mph85%29.64 "Hg9 mi
3:52 am35 °FPassing clouds.13 mph85%29.66 "Hg9 mi
2:52 am34 °FClear.8 mph88%29.69 "Hg8 mi
1:52 am34 °FFog.9 mph88%29.70 "Hg6 mi
12:52 am35 °FFog.8 mph88%29.72 "Hg6 mi
11:52 pm
Mon, Jan 23
35 °FFog.3 mph88%29.74 "Hg6 mi
10:52 pm35 °FFog.6 mph88%29.76 "Hg5 mi
9:52 pm36 °FFog.8 mph85%29.78 "Hg5 mi
8:52 pm35 °FFog.3 mph92%29.79 "Hg6 mi
7:52 pm36 °FFog.5 mph89%29.80 "Hg6 mi
6:52 pm39 °FClear.7 mph82%29.79 "Hg8 mi
5:52 pm42 °FClear.8 mph76%29.77 "Hg8 mi
4:52 pm46 °FSunny.12 mph68%29.76 "Hg10 mi
3:52 pm48 °FSunny.13 mph63%29.77 "Hg10 mi
2:52 pm51 °FSunny.9 mph56%29.78 "Hg10 mi
1:52 pm54 °FSunny.8 mph45%29.78 "Hg10 mi
Weather by CustomWeather, © 2017

See weather overviewHow to use our weather pages